Year,Month,Day,Hour,Minute,Value (Times are PST for temperature in C)
2012,07,26,00,00,15.20
2012,07,26,00,01,15.20
2012,07,26,00,02,15.20
2012,07,26,00,03,15.20
2012,07,26,00,04,15.20
2012,07,26,00,05,15.10
2012,07,26,00,06,15.10
2012,07,26,00,07,15.10
2012,07,26,00,08,15.10
2012,07,26,00,09,15.10
2012,07,26,00,10,15.20
2012,07,26,00,11,15.20
2012,07,26,00,12,15.20
2012,07,26,00,13,15.20
2012,07,26,00,14,15.10
2012,07,26,00,15,15.10
2012,07,26,00,16,15.10
2012,07,26,00,17,15.10
2012,07,26,00,18,15.10
2012,07,26,00,19,15.10
2012,07,26,00,20,15.10
2012,07,26,00,21,15.10
2012,07,26,00,22,15.10
2012,07,26,00,23,15.10
2012,07,26,00,24,15.10
2012,07,26,00,25,15.10
2012,07,26,00,26,15.10
2012,07,26,00,27,15.10
2012,07,26,00,28,15.00
2012,07,26,00,29,15.00
2012,07,26,00,30,15.00
2012,07,26,00,31,15.00
2012,07,26,00,32,15.00
2012,07,26,00,33,15.00
2012,07,26,00,34,15.00
2012,07,26,00,35,15.00
2012,07,26,00,36,15.00
2012,07,26,00,37,15.00
2012,07,26,00,38,15.00
2012,07,26,00,39,15.00
2012,07,26,00,40,15.00
2012,07,26,00,41,15.00
2012,07,26,00,42,15.00
2012,07,26,00,43,14.90
2012,07,26,00,44,14.90
2012,07,26,00,45,14.90
2012,07,26,00,46,14.90
2012,07,26,00,47,14.80
2012,07,26,00,48,14.80
2012,07,26,00,49,14.80
2012,07,26,00,50,14.80
2012,07,26,00,51,14.80
2012,07,26,00,52,14.80
2012,07,26,00,53,14.80
2012,07,26,00,54,14.80
2012,07,26,00,55,14.80
2012,07,26,00,56,14.80
2012,07,26,00,57,14.80
2012,07,26,00,58,14.80
2012,07,26,00,59,14.80
2012,07,26,01,00,14.90
2012,07,26,01,01,14.90
2012,07,26,01,02,15.00
2012,07,26,01,03,15.00
2012,07,26,01,04,15.00
2012,07,26,01,05,15.00
2012,07,26,01,06,15.00
2012,07,26,01,07,15.00
2012,07,26,01,08,15.00
2012,07,26,01,09,15.00
2012,07,26,01,10,15.00
2012,07,26,01,11,15.00
2012,07,26,01,12,15.00
2012,07,26,01,13,15.00
2012,07,26,01,14,15.00
2012,07,26,01,15,15.00
2012,07,26,01,16,15.00
2012,07,26,01,17,15.00
2012,07,26,01,18,14.90
2012,07,26,01,19,14.90
2012,07,26,01,20,14.90
2012,07,26,01,21,14.90
2012,07,26,01,22,14.90
2012,07,26,01,23,14.90
2012,07,26,01,24,14.90
2012,07,26,01,25,14.90
2012,07,26,01,26,14.80
2012,07,26,01,27,14.80
2012,07,26,01,28,14.80
2012,07,26,01,29,14.80
2012,07,26,01,30,14.80
2012,07,26,01,31,14.80
2012,07,26,01,32,14.80
2012,07,26,01,33,14.80
2012,07,26,01,34,14.70
2012,07,26,01,35,14.70
2012,07,26,01,36,14.70
2012,07,26,01,37,14.70
2012,07,26,01,38,14.70
2012,07,26,01,39,14.70
2012,07,26,01,40,14.70
2012,07,26,01,41,14.60
2012,07,26,01,42,14.60
2012,07,26,01,43,14.60
2012,07,26,01,44,14.60
2012,07,26,01,45,14.60
2012,07,26,01,46,14.60
2012,07,26,01,47,14.60
2012,07,26,01,48,14.60
2012,07,26,01,49,14.60
2012,07,26,01,50,14.60
2012,07,26,01,51,14.60
2012,07,26,01,52,14.60
2012,07,26,01,53,14.60
2012,07,26,01,54,14.50
2012,07,26,01,55,14.50
2012,07,26,01,56,14.50
2012,07,26,01,57,14.50
2012,07,26,01,58,14.50
2012,07,26,01,59,14.50
2012,07,26,02,00,14.50
2012,07,26,02,01,14.50
2012,07,26,02,02,14.40
2012,07,26,02,03,14.40
2012,07,26,02,04,14.40
2012,07,26,02,05,14.40
2012,07,26,02,06,14.40
2012,07,26,02,07,14.40
2012,07,26,02,08,14.40
2012,07,26,02,09,14.40
2012,07,26,02,10,14.40
2012,07,26,02,11,14.40
2012,07,26,02,12,14.40
2012,07,26,02,13,14.40
2012,07,26,02,14,14.40
2012,07,26,02,15,14.40
2012,07,26,02,16,14.40
2012,07,26,02,17,14.40
2012,07,26,02,18,14.40
2012,07,26,02,19,14.50
2012,07,26,02,20,14.50
2012,07,26,02,21,14.50
2012,07,26,02,22,14.50
2012,07,26,02,23,14.50
2012,07,26,02,24,14.50
2012,07,26,02,25,14.50
2012,07,26,02,26,14.50
2012,07,26,02,27,14.50
2012,07,26,02,28,14.40
2012,07,26,02,29,14.50
2012,07,26,02,30,14.50
2012,07,26,02,31,14.40
2012,07,26,02,32,14.40
2012,07,26,02,33,14.40
2012,07,26,02,34,14.40
2012,07,26,02,35,14.40
2012,07,26,02,36,14.40
2012,07,26,02,37,14.40
2012,07,26,02,38,14.40
2012,07,26,02,39,14.40
2012,07,26,02,40,14.40
2012,07,26,02,41,14.40
2012,07,26,02,42,14.40
2012,07,26,02,43,14.30
2012,07,26,02,44,14.30
2012,07,26,02,45,14.30
2012,07,26,02,46,14.30
2012,07,26,02,47,14.30
2012,07,26,02,48,14.30
2012,07,26,02,49,14.30
2012,07,26,02,50,14.30
2012,07,26,02,51,14.30
2012,07,26,02,52,14.30
2012,07,26,02,53,14.30
2012,07,26,02,54,14.30
2012,07,26,02,55,14.30
2012,07,26,02,56,14.30
2012,07,26,02,57,14.30
2012,07,26,02,58,14.30
2012,07,26,02,59,14.30
2012,07,26,03,00,14.30
2012,07,26,03,01,14.30
2012,07,26,03,02,14.30
2012,07,26,03,06,14.20
2012,07,26,03,07,14.20
2012,07,26,03,08,14.20
2012,07,26,03,09,14.20
2012,07,26,03,10,14.20
2012,07,26,03,11,14.20
2012,07,26,03,12,14.20
2012,07,26,03,13,14.20
2012,07,26,03,14,14.20
2012,07,26,03,15,14.20
2012,07,26,03,16,14.20
2012,07,26,03,17,14.20
2012,07,26,03,18,14.20
2012,07,26,03,19,14.20
2012,07,26,03,20,14.20
2012,07,26,03,21,14.10
2012,07,26,03,22,14.10
2012,07,26,03,23,14.10
2012,07,26,03,24,14.10
2012,07,26,03,25,14.10
2012,07,26,03,26,14.10
2012,07,26,03,27,14.10
2012,07,26,03,28,14.10
2012,07,26,03,29,14.10
2012,07,26,03,30,14.10
2012,07,26,03,31,14.10
2012,07,26,03,32,14.10
2012,07,26,03,33,14.10
2012,07,26,03,34,14.10
2012,07,26,03,35,14.10
2012,07,26,03,36,14.10
2012,07,26,03,37,14.10
2012,07,26,03,38,14.10
2012,07,26,03,39,14.10
2012,07,26,03,40,14.20
2012,07,26,03,41,14.20
2012,07,26,03,42,14.20
2012,07,26,03,43,14.10
2012,07,26,03,44,14.10
2012,07,26,03,45,14.10
2012,07,26,03,46,14.10
2012,07,26,03,47,14.10
2012,07,26,03,48,14.10
2012,07,26,03,49,14.10
2012,07,26,03,50,14.10
2012,07,26,03,51,14.10
2012,07,26,03,52,14.10
2012,07,26,03,53,14.10
2012,07,26,03,54,14.10
2012,07,26,03,55,14.10
2012,07,26,03,56,14.10
2012,07,26,03,57,14.10
2012,07,26,03,58,14.00
2012,07,26,03,59,14.00
2012,07,26,04,00,14.00
2012,07,26,04,01,13.90
2012,07,26,04,02,13.90
2012,07,26,04,03,13.90
2012,07,26,04,04,13.90
2012,07,26,04,05,13.90
2012,07,26,04,06,13.90
2012,07,26,04,07,13.80
2012,07,26,04,08,13.80
2012,07,26,04,09,13.80
2012,07,26,04,10,13.80
2012,07,26,04,11,13.80
2012,07,26,04,12,13.70
2012,07,26,04,13,13.70
2012,07,26,04,14,13.70
2012,07,26,04,15,13.70
2012,07,26,04,16,13.70
2012,07,26,04,17,13.70
2012,07,26,04,18,13.60
2012,07,26,04,19,13.60
2012,07,26,04,20,13.60
2012,07,26,04,21,13.60
2012,07,26,04,22,13.60
2012,07,26,04,23,13.60
2012,07,26,04,24,13.60
2012,07,26,04,25,13.60
2012,07,26,04,26,13.60
2012,07,26,04,27,13.60
2012,07,26,04,28,13.60
2012,07,26,04,29,13.60
2012,07,26,04,30,13.60
2012,07,26,04,31,13.60
2012,07,26,04,32,13.50
2012,07,26,04,33,13.50
2012,07,26,04,34,13.50
2012,07,26,04,35,13.50
2012,07,26,04,36,13.50
2012,07,26,04,37,13.40
2012,07,26,04,38,13.40
2012,07,26,04,39,13.40
2012,07,26,04,40,13.40
2012,07,26,04,41,13.40
2012,07,26,04,42,13.40
2012,07,26,04,43,13.40
2012,07,26,04,44,13.40
2012,07,26,04,45,13.40
2012,07,26,04,46,13.30
2012,07,26,04,47,13.30
2012,07,26,04,48,13.30
2012,07,26,04,49,13.30
2012,07,26,04,50,13.30
2012,07,26,04,51,13.40
2012,07,26,04,52,13.40
2012,07,26,04,53,13.40
2012,07,26,04,54,13.40
2012,07,26,04,55,13.40
2012,07,26,04,56,13.30
2012,07,26,04,57,13.30
2012,07,26,04,58,13.30
2012,07,26,04,59,13.30
2012,07,26,05,00,13.30
2012,07,26,05,01,13.30
2012,07,26,05,02,13.30
2012,07,26,05,03,13.30
2012,07,26,05,04,13.30
2012,07,26,05,05,13.30
2012,07,26,05,06,13.30
2012,07,26,05,07,13.30
2012,07,26,05,08,13.30
2012,07,26,05,09,13.30
2012,07,26,05,10,13.30
2012,07,26,05,11,13.30
2012,07,26,05,12,13.30
2012,07,26,05,13,13.30
2012,07,26,05,14,13.30
2012,07,26,05,15,13.30
2012,07,26,05,16,13.30
2012,07,26,05,17,13.30
2012,07,26,05,18,13.20
2012,07,26,05,19,13.20
2012,07,26,05,20,13.20
2012,07,26,05,21,13.20
2012,07,26,05,22,13.20
2012,07,26,05,23,13.20
2012,07,26,05,24,13.20
2012,07,26,05,25,13.20
2012,07,26,05,26,13.20
2012,07,26,05,27,13.20
2012,07,26,05,28,13.10
2012,07,26,05,29,13.10
2012,07,26,05,30,13.10
2012,07,26,05,31,13.10
2012,07,26,05,32,13.10
2012,07,26,05,33,13.10
2012,07,26,05,34,13.10
2012,07,26,05,35,13.10
2012,07,26,05,36,13.10
2012,07,26,05,37,13.10
2012,07,26,05,38,13.10
2012,07,26,05,39,13.10
2012,07,26,05,40,13.10
2012,07,26,05,41,13.10
2012,07,26,05,42,13.10
2012,07,26,05,43,13.10
2012,07,26,05,44,13.10
2012,07,26,05,45,13.10
2012,07,26,05,46,13.10
2012,07,26,05,47,13.10
2012,07,26,05,48,13.10
2012,07,26,05,49,13.00
2012,07,26,05,50,13.00
2012,07,26,05,51,13.00
2012,07,26,05,52,13.00
2012,07,26,05,53,13.00
2012,07,26,05,54,13.00
2012,07,26,05,55,12.90
2012,07,26,05,56,13.00
2012,07,26,05,57,13.00
2012,07,26,05,58,12.90
2012,07,26,05,59,13.00
2012,07,26,06,00,13.00
2012,07,26,06,01,13.00
2012,07,26,06,02,13.00
2012,07,26,06,03,13.00
2012,07,26,06,04,13.00
2012,07,26,06,05,13.00
2012,07,26,06,06,13.00
2012,07,26,06,07,13.00
2012,07,26,06,08,13.00
2012,07,26,06,09,13.00
2012,07,26,06,10,13.00
2012,07,26,06,11,13.00
2012,07,26,06,12,13.10
2012,07,26,06,13,13.10
2012,07,26,06,14,13.10
2012,07,26,06,15,13.10
2012,07,26,06,16,13.10
2012,07,26,06,17,13.10
2012,07,26,06,18,13.10
2012,07,26,06,19,13.10
2012,07,26,06,20,13.10
2012,07,26,06,21,13.10
2012,07,26,06,22,13.20
2012,07,26,06,23,13.20
2012,07,26,06,24,13.20
2012,07,26,06,25,13.20
2012,07,26,06,26,13.20
2012,07,26,06,27,13.20
2012,07,26,06,28,13.20
2012,07,26,06,29,13.20
2012,07,26,06,30,13.20
2012,07,26,06,31,13.20
2012,07,26,06,32,13.20
2012,07,26,06,33,13.20
2012,07,26,06,34,13.20
2012,07,26,06,35,13.20
2012,07,26,06,36,13.20
2012,07,26,06,37,13.20
2012,07,26,06,38,13.20
2012,07,26,06,39,13.20
2012,07,26,06,40,13.20
2012,07,26,06,41,13.30
2012,07,26,06,42,13.30
2012,07,26,06,43,13.30
2012,07,26,06,44,13.30
2012,07,26,06,45,13.30
2012,07,26,06,46,13.30
2012,07,26,06,47,13.30
2012,07,26,06,48,13.30
2012,07,26,06,49,13.30
2012,07,26,06,50,13.30
2012,07,26,06,51,13.30
2012,07,26,06,52,13.30
2012,07,26,06,53,13.30
2012,07,26,06,54,13.30
2012,07,26,06,55,13.30
2012,07,26,06,56,13.30
2012,07,26,06,57,13.30
2012,07,26,06,58,13.30
2012,07,26,06,59,13.30
2012,07,26,07,00,13.30
2012,07,26,07,01,13.40
2012,07,26,07,02,13.40
2012,07,26,07,03,13.50
2012,07,26,07,04,13.50
2012,07,26,07,05,13.60
2012,07,26,07,06,13.60
2012,07,26,07,07,13.60
2012,07,26,07,08,13.70
2012,07,26,07,09,13.70
2012,07,26,07,10,13.70
2012,07,26,07,11,13.70
2012,07,26,07,12,13.70
2012,07,26,07,13,13.80
2012,07,26,07,14,13.80
2012,07,26,07,15,13.80
2012,07,26,07,16,13.80
2012,07,26,07,17,13.80
2012,07,26,07,18,13.80
2012,07,26,07,19,13.80
2012,07,26,07,20,13.80
2012,07,26,07,21,13.80
2012,07,26,07,22,13.80
2012,07,26,07,23,13.80
2012,07,26,07,24,13.80
2012,07,26,07,25,13.80
2012,07,26,07,26,13.90
2012,07,26,07,27,13.90
2012,07,26,07,28,13.90
2012,07,26,07,29,13.90
2012,07,26,07,30,14.00
2012,07,26,07,31,14.00
2012,07,26,07,32,14.10
2012,07,26,07,33,14.10
2012,07,26,07,34,14.10
2012,07,26,07,35,14.10
2012,07,26,07,36,14.20
2012,07,26,07,37,14.20
2012,07,26,07,38,14.20
2012,07,26,07,39,14.30
2012,07,26,07,40,14.30
2012,07,26,07,41,14.30
2012,07,26,07,42,14.40
2012,07,26,07,43,14.40
2012,07,26,07,44,14.40
2012,07,26,07,45,14.50
2012,07,26,07,46,14.50
2012,07,26,07,47,14.60
2012,07,26,07,48,14.60
2012,07,26,07,49,14.60
2012,07,26,07,50,14.60
2012,07,26,07,51,14.70
2012,07,26,07,52,14.70
2012,07,26,07,53,14.70
2012,07,26,07,54,14.80
2012,07,26,07,55,14.80
2012,07,26,07,56,14.80
2012,07,26,07,57,14.90
2012,07,26,07,58,14.90
2012,07,26,07,59,15.00
2012,07,26,08,00,15.00
2012,07,26,08,01,15.00
2012,07,26,08,02,15.00
2012,07,26,08,03,15.00
2012,07,26,08,04,15.00
2012,07,26,08,05,15.00
2012,07,26,08,06,15.10
2012,07,26,08,07,15.20
2012,07,26,08,08,15.20
2012,07,26,08,09,15.30
2012,07,26,08,10,15.40
2012,07,26,08,11,15.40
2012,07,26,08,12,15.50
2012,07,26,08,13,15.60
2012,07,26,08,14,15.70
2012,07,26,08,15,15.70
2012,07,26,08,16,15.70
2012,07,26,08,17,15.80
2012,07,26,08,18,15.80
2012,07,26,08,19,15.80
2012,07,26,08,20,15.90
2012,07,26,08,21,15.90
2012,07,26,08,22,16.00
2012,07,26,08,23,16.00
2012,07,26,08,24,16.10
2012,07,26,08,25,16.10
2012,07,26,08,26,16.20
2012,07,26,08,27,16.30
2012,07,26,08,28,16.30
2012,07,26,08,29,16.40
2012,07,26,08,30,16.40
2012,07,26,08,31,16.50
2012,07,26,08,32,16.60
2012,07,26,08,33,16.60
2012,07,26,08,34,16.70
2012,07,26,08,35,16.70
2012,07,26,08,36,16.80
2012,07,26,08,37,16.80
2012,07,26,08,38,16.90
2012,07,26,08,39,16.90
2012,07,26,08,40,17.00
2012,07,26,08,41,17.10
2012,07,26,08,42,17.10
2012,07,26,08,43,17.10
2012,07,26,08,44,17.20
2012,07,26,08,45,17.30
2012,07,26,08,46,17.30
2012,07,26,08,47,17.40
2012,07,26,08,48,17.40
2012,07,26,08,49,17.50
2012,07,26,08,50,17.50
2012,07,26,08,51,17.60
2012,07,26,08,52,17.60
2012,07,26,08,53,17.70
2012,07,26,08,54,17.70
2012,07,26,08,55,17.80
2012,07,26,08,56,17.80
2012,07,26,08,57,17.90
2012,07,26,08,58,17.90
2012,07,26,08,59,18.00
2012,07,26,09,00,18.00
2012,07,26,09,01,18.10
2012,07,26,09,02,18.10
2012,07,26,09,03,18.10
2012,07,26,09,04,18.20
2012,07,26,09,05,18.20
2012,07,26,09,06,18.20
2012,07,26,09,07,18.20
2012,07,26,09,08,18.30
2012,07,26,09,09,18.30
2012,07,26,09,10,18.40
2012,07,26,09,11,18.50
2012,07,26,09,12,18.50
2012,07,26,09,13,18.60
2012,07,26,09,14,18.60
2012,07,26,09,15,18.70
2012,07,26,09,16,18.70
2012,07,26,09,17,18.70
2012,07,26,09,18,18.80
2012,07,26,09,19,18.80
2012,07,26,09,20,18.80
2012,07,26,09,21,18.80
2012,07,26,09,22,18.80
2012,07,26,09,23,18.80
2012,07,26,09,24,18.80
2012,07,26,09,25,18.80
2012,07,26,09,26,18.80
2012,07,26,09,27,18.90
2012,07,26,09,28,18.90
2012,07,26,09,29,18.90
2012,07,26,09,30,18.90
2012,07,26,09,31,18.90
2012,07,26,09,32,18.90
2012,07,26,09,33,18.90
2012,07,26,09,34,18.90
2012,07,26,09,35,18.90
2012,07,26,09,36,18.90
2012,07,26,09,37,19.00
2012,07,26,09,38,19.00
2012,07,26,09,39,19.10
2012,07,26,09,40,19.10
2012,07,26,09,41,19.20
2012,07,26,09,42,19.20
2012,07,26,09,43,19.20
2012,07,26,09,44,19.20
2012,07,26,09,45,19.30
2012,07,26,09,46,19.30
2012,07,26,09,47,19.40
2012,07,26,09,48,19.40
2012,07,26,09,49,19.40
2012,07,26,09,50,19.50
2012,07,26,09,51,19.60
2012,07,26,09,52,19.60
2012,07,26,09,53,19.70
2012,07,26,09,54,19.70
2012,07,26,09,55,19.70
2012,07,26,09,56,19.70
2012,07,26,09,57,19.70
2012,07,26,09,58,19.70
2012,07,26,09,59,19.70
2012,07,26,10,00,19.80
2012,07,26,10,01,19.80
2012,07,26,10,02,19.80
2012,07,26,10,03,19.80
2012,07,26,10,04,19.80
2012,07,26,10,05,19.80
2012,07,26,10,06,19.80
2012,07,26,10,07,19.80
2012,07,26,10,08,19.80
2012,07,26,10,09,19.80
2012,07,26,10,10,19.90
2012,07,26,10,11,19.90
2012,07,26,10,12,19.90
2012,07,26,10,13,19.90
2012,07,26,10,14,19.90
2012,07,26,10,15,20.00
2012,07,26,10,16,20.00
2012,07,26,10,17,20.00
2012,07,26,10,18,20.00
2012,07,26,10,19,19.90
2012,07,26,10,20,19.80
2012,07,26,10,21,19.80
2012,07,26,10,22,19.80
2012,07,26,10,23,19.80
2012,07,26,10,24,19.80
2012,07,26,10,25,19.90
2012,07,26,10,26,20.00
2012,07,26,10,27,20.00
2012,07,26,10,28,20.10
2012,07,26,10,29,20.00
2012,07,26,10,30,20.00
2012,07,26,10,31,20.10
2012,07,26,10,32,20.10
2012,07,26,10,33,20.20
2012,07,26,10,34,20.20
2012,07,26,10,35,20.10
2012,07,26,10,36,20.10
2012,07,26,10,37,20.00
2012,07,26,10,38,19.90
2012,07,26,10,39,19.90
2012,07,26,10,40,20.00
2012,07,26,10,41,20.00
2012,07,26,10,42,20.00
2012,07,26,10,43,20.00
2012,07,26,10,44,20.10
2012,07,26,10,45,20.10
2012,07,26,10,46,20.10
2012,07,26,10,47,20.20
2012,07,26,10,48,20.30
2012,07,26,10,49,20.30
2012,07,26,10,50,20.40
2012,07,26,10,51,20.50
2012,07,26,10,52,20.50
2012,07,26,10,53,20.60
2012,07,26,10,54,20.70
2012,07,26,10,55,20.70
2012,07,26,10,56,20.70
2012,07,26,10,57,20.70
2012,07,26,10,58,20.70
2012,07,26,10,59,20.70
2012,07,26,11,00,20.70
2012,07,26,11,01,20.70
2012,07,26,11,02,20.70
2012,07,26,11,03,20.70
2012,07,26,11,04,20.80
2012,07,26,11,05,20.80
2012,07,26,11,06,20.80
2012,07,26,11,07,20.80
2012,07,26,11,08,20.90
2012,07,26,11,09,20.90
2012,07,26,11,10,20.80
2012,07,26,11,11,20.80
2012,07,26,11,12,20.80
2012,07,26,11,13,20.80
2012,07,26,11,14,20.80
2012,07,26,11,15,20.70
2012,07,26,11,16,20.70
2012,07,26,11,17,20.70
2012,07,26,11,18,20.70
2012,07,26,11,19,20.80
2012,07,26,11,20,20.80
2012,07,26,11,21,20.90
2012,07,26,11,22,20.90
2012,07,26,11,23,21.00
2012,07,26,11,24,21.00
2012,07,26,11,25,21.00
2012,07,26,11,26,20.90
2012,07,26,11,27,20.90
2012,07,26,11,28,21.00
2012,07,26,11,29,21.10
2012,07,26,11,30,21.10
2012,07,26,11,31,21.20
2012,07,26,11,32,21.20
2012,07,26,11,33,21.20
2012,07,26,11,34,21.20
2012,07,26,11,35,21.10
2012,07,26,11,36,21.10
2012,07,26,11,37,21.10
2012,07,26,11,38,21.10
2012,07,26,11,39,21.10
2012,07,26,11,40,21.10
2012,07,26,11,41,21.00
2012,07,26,11,42,21.00
2012,07,26,11,43,20.90
2012,07,26,11,44,20.90
2012,07,26,11,45,21.00
2012,07,26,11,46,21.00
2012,07,26,11,47,21.10
2012,07,26,11,48,21.10
2012,07,26,11,49,21.20
2012,07,26,11,50,21.20
2012,07,26,11,51,21.30
2012,07,26,11,52,21.30
2012,07,26,11,53,21.30
2012,07,26,11,54,21.30
2012,07,26,11,55,21.30
2012,07,26,11,56,21.30
2012,07,26,11,57,21.30
2012,07,26,11,58,21.30
2012,07,26,11,59,21.20
2012,07,26,12,00,21.10
2012,07,26,12,01,21.00
2012,07,26,12,02,20.90
2012,07,26,12,03,20.90
2012,07,26,12,04,20.80
2012,07,26,12,05,20.80
2012,07,26,12,06,20.90
2012,07,26,12,07,21.00
2012,07,26,12,08,21.00
2012,07,26,12,09,21.10
2012,07,26,12,10,21.30
2012,07,26,12,11,21.40
2012,07,26,12,12,21.50
2012,07,26,12,13,21.70
2012,07,26,12,14,21.80
2012,07,26,12,15,21.80
2012,07,26,12,16,21.90
2012,07,26,12,17,21.90
2012,07,26,12,18,21.90
2012,07,26,12,19,22.00
2012,07,26,12,20,22.10
2012,07,26,12,21,22.10
2012,07,26,12,22,22.20
2012,07,26,12,23,22.20
2012,07,26,12,24,22.30
2012,07,26,12,25,22.40
2012,07,26,12,26,22.40
2012,07,26,12,27,22.30
2012,07,26,12,28,22.30
2012,07,26,12,29,22.30
2012,07,26,12,30,22.20
2012,07,26,12,31,22.10
2012,07,26,12,32,22.10
2012,07,26,12,33,22.10
2012,07,26,12,34,22.10
2012,07,26,12,35,22.20
2012,07,26,12,36,22.20
2012,07,26,12,37,22.30
2012,07,26,12,38,22.30
2012,07,26,12,39,22.30
2012,07,26,12,40,22.30
2012,07,26,12,41,22.40
2012,07,26,12,42,22.40
2012,07,26,12,43,22.50
2012,07,26,12,44,22.50
2012,07,26,12,45,22.60
2012,07,26,12,46,22.60
2012,07,26,12,47,22.50
2012,07,26,12,48,22.50
2012,07,26,12,49,22.50
2012,07,26,12,50,22.40
2012,07,26,12,51,22.40
2012,07,26,12,52,22.40
2012,07,26,12,53,22.40
2012,07,26,12,54,22.30
2012,07,26,12,55,22.30
2012,07,26,12,56,22.30
2012,07,26,12,57,22.40
2012,07,26,12,58,22.40
2012,07,26,12,59,22.50
2012,07,26,13,00,22.60
2012,07,26,13,01,22.70
2012,07,26,13,02,22.70
2012,07,26,13,03,22.70
2012,07,26,13,04,22.60
2012,07,26,13,05,22.70
2012,07,26,13,06,22.80
2012,07,26,13,07,22.90
2012,07,26,13,08,22.90
2012,07,26,13,09,22.80
2012,07,26,13,10,22.80
2012,07,26,13,11,22.90
2012,07,26,13,12,23.00
2012,07,26,13,13,23.00
2012,07,26,13,14,22.90
2012,07,26,13,15,22.80
2012,07,26,13,16,22.80
2012,07,26,13,17,22.80
2012,07,26,13,18,22.80
2012,07,26,13,19,23.00
2012,07,26,13,20,23.10
2012,07,26,13,21,23.20
2012,07,26,13,22,23.40
2012,07,26,13,23,23.50
2012,07,26,13,24,23.50
2012,07,26,13,25,23.40
2012,07,26,13,26,23.40
2012,07,26,13,27,23.40
2012,07,26,13,28,23.30
2012,07,26,13,29,23.30
2012,07,26,13,30,23.20
2012,07,26,13,31,23.30
2012,07,26,13,32,23.40
2012,07,26,13,33,23.40
2012,07,26,13,34,23.50
2012,07,26,13,35,23.50
2012,07,26,13,36,23.50
2012,07,26,13,37,23.60
2012,07,26,13,38,23.60
2012,07,26,13,39,23.60
2012,07,26,13,40,23.60
2012,07,26,13,41,23.80
2012,07,26,13,42,24.00
2012,07,26,13,43,24.20
2012,07,26,13,44,24.40
2012,07,26,13,45,24.40
2012,07,26,13,46,24.40
2012,07,26,13,47,24.50
2012,07,26,13,48,24.50
2012,07,26,13,49,24.60
2012,07,26,13,50,24.60
2012,07,26,13,51,24.60
2012,07,26,13,52,24.60
2012,07,26,13,53,24.60
2012,07,26,13,54,24.60
2012,07,26,13,55,24.60
2012,07,26,13,56,24.60
2012,07,26,13,57,24.50
2012,07,26,13,58,24.30
2012,07,26,13,59,24.20
2012,07,26,14,00,24.00
2012,07,26,14,01,23.80
2012,07,26,14,02,23.60
2012,07,26,14,03,23.40
2012,07,26,14,04,23.20
2012,07,26,14,05,23.10
2012,07,26,14,06,23.00
2012,07,26,14,07,23.00
2012,07,26,14,08,23.00
2012,07,26,14,09,23.00
2012,07,26,14,10,23.10
2012,07,26,14,11,23.10
2012,07,26,14,12,23.10
2012,07,26,14,13,23.10
2012,07,26,14,14,23.30
2012,07,26,14,15,23.60
2012,07,26,14,16,23.80
2012,07,26,14,17,23.70
2012,07,26,14,18,23.70
2012,07,26,14,19,23.60
2012,07,26,14,20,23.60
2012,07,26,14,21,23.50
2012,07,26,14,22,23.60
2012,07,26,14,23,23.60
2012,07,26,14,24,23.60
2012,07,26,14,25,23.70
2012,07,26,14,26,23.60
2012,07,26,14,27,23.60
2012,07,26,14,28,23.40
2012,07,26,14,29,23.30
2012,07,26,14,30,23.20
2012,07,26,14,31,23.20
2012,07,26,14,32,23.20
2012,07,26,14,33,23.20
2012,07,26,14,34,23.10
2012,07,26,14,35,23.10
2012,07,26,14,36,23.10
2012,07,26,14,37,23.00
2012,07,26,14,38,22.90
2012,07,26,14,39,22.80
2012,07,26,14,40,22.80
2012,07,26,14,41,22.80
2012,07,26,14,42,22.80
2012,07,26,14,43,22.80
2012,07,26,14,44,22.80
2012,07,26,14,45,22.90
2012,07,26,14,46,23.00
2012,07,26,14,47,23.10
2012,07,26,14,48,23.10
2012,07,26,14,49,23.10
2012,07,26,14,50,23.10
2012,07,26,14,51,23.20
2012,07,26,14,52,23.20
2012,07,26,14,53,23.30
2012,07,26,14,54,23.30
2012,07,26,14,55,23.40
2012,07,26,14,56,23.40
2012,07,26,14,57,23.40
2012,07,26,14,58,23.40
2012,07,26,14,59,23.40
2012,07,26,15,00,23.40
2012,07,26,15,01,23.50
2012,07,26,15,02,23.40
2012,07,26,15,03,23.40
2012,07,26,15,04,23.50
2012,07,26,15,05,23.40
2012,07,26,15,06,23.40
2012,07,26,15,07,23.40
2012,07,26,15,08,23.40
2012,07,26,15,09,23.50
2012,07,26,15,10,23.60
2012,07,26,15,11,23.70
2012,07,26,15,12,23.90
2012,07,26,15,13,24.10
2012,07,26,15,14,24.30
2012,07,26,15,15,24.50
2012,07,26,15,16,24.70
2012,07,26,15,17,25.00
2012,07,26,15,18,25.20
2012,07,26,15,19,25.30
2012,07,26,15,20,25.50
2012,07,26,15,21,25.50
2012,07,26,15,22,25.40
2012,07,26,15,23,25.40
2012,07,26,15,24,25.50
2012,07,26,15,25,25.50
2012,07,26,15,26,25.50
2012,07,26,15,27,25.60
2012,07,26,15,28,25.70
2012,07,26,15,29,25.80
2012,07,26,15,30,25.90
2012,07,26,15,31,25.90
2012,07,26,15,32,25.90
2012,07,26,15,33,26.00
2012,07,26,15,34,26.10
2012,07,26,15,35,26.20
2012,07,26,15,36,26.20
2012,07,26,15,37,26.30
2012,07,26,15,38,26.30
2012,07,26,15,39,26.30
2012,07,26,15,40,26.20
2012,07,26,15,41,26.00
2012,07,26,15,42,25.90
2012,07,26,15,43,25.70
2012,07,26,15,44,25.60
2012,07,26,15,45,25.60
2012,07,26,15,46,25.60
2012,07,26,15,47,25.60
2012,07,26,15,48,25.70
2012,07,26,15,49,25.70
2012,07,26,15,50,25.70
2012,07,26,15,51,25.80
2012,07,26,15,52,25.80
2012,07,26,15,53,25.90
2012,07,26,15,54,26.00
2012,07,26,15,55,26.10
2012,07,26,15,56,26.20
2012,07,26,15,57,26.20
2012,07,26,15,58,26.30
2012,07,26,15,59,26.30
2012,07,26,16,00,26.30
2012,07,26,16,01,26.30
2012,07,26,16,02,26.30
2012,07,26,16,03,26.20
2012,07,26,16,04,26.20
2012,07,26,16,05,26.10
2012,07,26,16,06,26.10
2012,07,26,16,07,26.00
2012,07,26,16,08,26.00
2012,07,26,16,09,26.00
2012,07,26,16,10,26.00
2012,07,26,16,11,26.00
2012,07,26,16,12,26.00
2012,07,26,16,13,26.10
2012,07,26,16,14,26.10
2012,07,26,16,15,26.10
2012,07,26,16,16,26.00
2012,07,26,16,17,25.90
2012,07,26,16,18,25.90
2012,07,26,16,19,25.90
2012,07,26,16,20,25.90
2012,07,26,16,21,25.90
2012,07,26,16,22,25.90
2012,07,26,16,23,25.90
2012,07,26,16,24,25.90
2012,07,26,16,25,25.90
2012,07,26,16,26,25.90
2012,07,26,16,27,25.80
2012,07,26,16,28,25.80
2012,07,26,16,29,25.80
2012,07,26,16,30,25.80
2012,07,26,16,31,25.90
2012,07,26,16,32,25.90
2012,07,26,16,33,25.90
2012,07,26,16,34,25.90
2012,07,26,16,35,26.00
2012,07,26,16,36,26.00
2012,07,26,16,37,26.10
2012,07,26,16,38,26.10
2012,07,26,16,39,26.20
2012,07,26,16,40,26.30
2012,07,26,16,41,26.30
2012,07,26,16,42,26.30
2012,07,26,16,43,26.30
2012,07,26,16,44,26.30
2012,07,26,16,45,26.40
2012,07,26,16,46,26.40
2012,07,26,16,47,26.30
2012,07,26,16,48,26.20
2012,07,26,16,49,26.20
2012,07,26,16,50,26.10
2012,07,26,16,51,26.00
2012,07,26,16,52,26.00
2012,07,26,16,53,25.90
2012,07,26,16,54,25.90
2012,07,26,16,55,25.90
2012,07,26,16,56,25.90
2012,07,26,16,57,25.90
2012,07,26,16,58,25.90
2012,07,26,16,59,25.90
2012,07,26,17,00,25.90
2012,07,26,17,01,25.90
2012,07,26,17,02,26.00
2012,07,26,17,03,26.00
2012,07,26,17,04,26.00
2012,07,26,17,05,26.00
2012,07,26,17,06,26.00
2012,07,26,17,07,26.00
2012,07,26,17,08,26.10
2012,07,26,17,09,26.10
2012,07,26,17,10,26.20
2012,07,26,17,11,26.20
2012,07,26,17,12,26.30
2012,07,26,17,13,26.30
2012,07,26,17,14,26.30
2012,07,26,17,15,26.30
2012,07,26,17,16,26.30
2012,07,26,17,17,26.10
2012,07,26,17,18,26.00
2012,07,26,17,19,25.90
2012,07,26,17,20,25.90
2012,07,26,17,21,25.90
2012,07,26,17,22,25.90